Time,TemperatureF,DewpointF,PressureIn,WindDirection,WindDirectionDegrees,WindSpeedMPH,WindSpeedGustMPH,Humidity,HourlyPrecipIn,Conditions,Clouds,dailyrainin,SoftwareType,DateUTC
2013-09-22 00:00:00,58.8,56.2,29.82,WSW,252,0.0,0.0,91,0.00,,,0.00,Wunderground v.1.15,2013-09-22 04:00:00,
2013-09-22 00:05:00,58.7,56.1,29.82,WSW,258,0.0,0.0,91,0.00,,,0.00,Wunderground v.1.15,2013-09-22 04:05:00,
2013-09-22 00:10:00,58.8,56.2,29.82,WSW,258,0.0,0.0,91,0.00,,,0.00,Wunderground v.1.15,2013-09-22 04:10:00,
2013-09-22 00:15:00,58.8,56.2,29.82,WSW,258,0.0,0.0,91,0.00,,,0.00,Wunderground v.1.15,2013-09-22 04:15:00,
2013-09-22 00:20:00,58.8,56.2,29.82,WSW,258,0.0,0.0,91,0.00,,,0.00,Wunderground v.1.15,2013-09-22 04:20:00,
2013-09-22 00:25:00,58.7,56.1,29.83,WSW,237,0.0,3.0,91,0.00,,,0.00,Wunderground v.1.15,2013-09-22 04:25:00,
2013-09-22 00:30:00,58.7,56.1,29.83,South,188,0.0,0.0,91,0.00,,,0.00,Wunderground v.1.15,2013-09-22 04:30:00,
2013-09-22 00:35:00,58.7,56.1,29.83,South,188,1.0,1.0,91,0.00,,,0.00,Wunderground v.1.15,2013-09-22 04:35:00,
2013-09-22 00:40:00,58.6,56.0,29.83,South,189,0.0,0.0,91,0.00,,,0.00,Wunderground v.1.15,2013-09-22 04:40:00,
2013-09-22 00:45:00,58.6,56.0,29.82,South,188,0.0,0.0,91,0.00,,,0.00,Wunderground v.1.15,2013-09-22 04:45:00,
2013-09-22 00:55:00,58.6,56.0,29.82,South,189,0.0,0.0,91,0.00,,,0.00,Wunderground v.1.15,2013-09-22 04:55:00,
2013-09-22 01:00:00,58.4,55.8,29.83,South,189,0.0,0.0,91,0.00,,,0.00,Wunderground v.1.15,2013-09-22 05:00:00,
2013-09-22 01:10:00,58.3,55.7,29.82,South,189,0.0,0.0,91,0.00,,,0.00,Wunderground v.1.15,2013-09-22 05:10:00,
2013-09-22 01:15:00,58.2,55.6,29.82,South,188,0.0,0.0,91,0.00,,,0.00,Wunderground v.1.15,2013-09-22 05:15:00,
2013-09-22 01:20:00,58.0,55.4,29.83,South,188,0.0,0.0,91,0.00,,,0.00,Wunderground v.1.15,2013-09-22 05:20:00,
2013-09-22 01:25:00,57.8,55.2,29.83,South,188,0.0,0.0,91,0.00,,,0.00,Wunderground v.1.15,2013-09-22 05:25:00,
2013-09-22 01:30:00,57.6,55.0,29.83,South,188,0.0,0.0,91,0.00,,,0.00,Wunderground v.1.15,2013-09-22 05:30:00,
2013-09-22 01:40:00,57.1,54.5,29.83,South,188,0.0,0.0,91,0.00,,,0.00,Wunderground v.1.15,2013-09-22 05:40:00,
2013-09-22 01:45:00,56.8,54.2,29.83,South,189,0.0,0.0,91,0.00,,,0.00,Wunderground v.1.15,2013-09-22 05:45:00,
2013-09-22 01:55:00,56.5,53.9,29.83,WSW,255,1.0,1.0,91,0.00,,,0.00,Wunderground v.1.15,2013-09-22 05:55:00,
2013-09-22 02:00:00,56.5,53.9,29.83,WSW,255,1.0,1.0,91,0.00,,,0.00,Wunderground v.1.15,2013-09-22 06:00:00,
2013-09-22 02:10:00,56.1,53.5,29.83,WSW,255,0.0,0.0,91,0.00,,,0.00,Wunderground v.1.15,2013-09-22 06:10:00,
2013-09-22 02:15:00,55.9,53.3,29.83,WSW,255,0.0,0.0,91,0.00,,,0.00,Wunderground v.1.15,2013-09-22 06:15:00,
2013-09-22 02:25:00,55.4,52.8,29.83,WSW,255,0.0,0.0,91,0.00,,,0.00,Wunderground v.1.15,2013-09-22 06:25:00,
2013-09-22 02:30:00,55.1,52.5,29.83,WSW,255,0.0,0.0,91,0.00,,,0.00,Wunderground v.1.15,2013-09-22 06:30:00,
2013-09-22 02:35:00,54.8,52.2,29.83,WSW,255,0.0,0.0,91,0.00,,,0.00,Wunderground v.1.15,2013-09-22 06:35:00,
2013-09-22 02:40:00,54.6,52.0,29.83,WSW,255,1.0,1.0,91,0.00,,,0.00,Wunderground v.1.15,2013-09-22 06:40:00,
2013-09-22 02:45:00,54.5,51.9,29.83,WSW,255,0.0,1.0,91,0.00,,,0.00,Wunderground v.1.15,2013-09-22 06:45:00,
2013-09-22 02:55:00,54.4,51.8,29.83,WSW,255,0.0,0.0,91,0.00,,,0.00,Wunderground v.1.15,2013-09-22 06:55:00,
2013-09-22 03:00:00,54.3,51.7,29.83,WSW,255,0.0,0.0,91,0.00,,,0.00,Wunderground v.1.15,2013-09-22 07:00:00,
2013-09-22 03:05:00,54.2,51.6,29.83,WSW,255,0.0,0.0,91,0.00,,,0.00,Wunderground v.1.15,2013-09-22 07:05:00,
2013-09-22 03:10:00,54.1,51.5,29.83,WSW,255,0.0,1.0,91,0.00,,,0.00,Wunderground v.1.15,2013-09-22 07:10:00,
2013-09-22 03:15:00,54.1,51.5,29.83,WSW,255,0.0,1.0,91,0.00,,,0.00,Wunderground v.1.15,2013-09-22 07:15:00,
2013-09-22 03:25:00,54.1,51.5,29.83,NE,35,0.0,0.0,91,0.00,,,0.00,Wunderground v.1.15,2013-09-22 07:25:00,
2013-09-22 03:30:00,54.0,51.7,29.83,NE,35,0.0,0.0,92,0.00,,,0.00,Wunderground v.1.15,2013-09-22 07:30:00,
2013-09-22 03:40:00,53.7,51.1,29.83,WNW,302,0.0,0.0,91,0.00,,,0.00,Wunderground v.1.15,2013-09-22 07:40:00,
2013-09-22 03:45:00,53.6,51.0,29.84,WNW,302,0.0,0.0,91,0.00,,,0.00,Wunderground v.1.15,2013-09-22 07:45:00,
2013-09-22 03:55:00,53.5,51.2,29.84,WNW,302,0.0,0.0,92,0.00,,,0.00,Wunderground v.1.15,2013-09-22 07:55:00,
2013-09-22 04:00:00,53.4,51.1,29.84,WNW,302,0.0,0.0,92,0.00,,,0.00,Wunderground v.1.15,2013-09-22 08:00:00,
2013-09-22 04:05:00,53.2,50.6,29.84,WNW,302,0.0,0.0,91,0.00,,,0.00,Wunderground v.1.15,2013-09-22 08:05:00,
2013-09-22 04:10:00,53.1,50.5,29.84,WNW,302,0.0,0.0,91,0.00,,,0.00,Wunderground v.1.15,2013-09-22 08:10:00,
2013-09-22 04:15:00,53.0,50.7,29.84,WNW,302,0.0,0.0,92,0.00,,,0.00,Wunderground v.1.15,2013-09-22 08:15:00,
2013-09-22 04:25:00,52.7,50.4,29.84,WNW,302,0.0,0.0,92,0.00,,,0.00,Wunderground v.1.15,2013-09-22 08:25:00,
2013-09-22 04:30:00,52.6,50.3,29.84,WNW,302,0.0,0.0,92,0.00,,,0.00,Wunderground v.1.15,2013-09-22 08:30:00,
2013-09-22 04:40:00,52.5,50.2,29.84,WNW,302,0.0,0.0,92,0.00,,,0.00,Wunderground v.1.15,2013-09-22 08:40:00,
2013-09-22 04:45:00,52.5,50.2,29.84,WNW,302,0.0,0.0,92,0.00,,,0.00,Wunderground v.1.15,2013-09-22 08:45:00,
2013-09-22 04:50:00,52.4,50.1,29.85,WNW,302,0.0,0.0,92,0.00,,,0.00,Wunderground v.1.15,2013-09-22 08:50:00,
2013-09-22 04:55:00,52.3,50.0,29.85,WNW,302,0.0,0.0,92,0.00,,,0.00,Wunderground v.1.15,2013-09-22 08:55:00,
2013-09-22 05:00:00,52.2,49.9,29.85,WNW,302,0.0,0.0,92,0.00,,,0.00,Wunderground v.1.15,2013-09-22 09:00:00,
2013-09-22 05:10:00,52.1,49.8,29.85,WNW,302,0.0,0.0,92,0.00,,,0.00,Wunderground v.1.15,2013-09-22 09:10:00,
2013-09-22 05:20:00,52.2,49.9,29.85,WNW,302,0.0,0.0,92,0.00,,,0.00,Wunderground v.1.15,2013-09-22 09:20:00,
2013-09-22 05:25:00,52.2,49.9,29.86,WNW,302,0.0,0.0,92,0.00,,,0.00,Wunderground v.1.15,2013-09-22 09:25:00,
2013-09-22 05:30:00,52.1,49.8,29.86,WNW,302,0.0,0.0,92,0.00,,,0.00,Wunderground v.1.15,2013-09-22 09:30:00,
2013-09-22 05:40:00,52.1,49.8,29.86,WNW,302,0.0,0.0,92,0.00,,,0.00,Wunderground v.1.15,2013-09-22 09:40:00,
2013-09-22 05:45:00,52.1,49.8,29.86,WNW,302,0.0,0.0,92,0.00,,,0.00,Wunderground v.1.15,2013-09-22 09:45:00,
2013-09-22 05:55:00,52.0,49.7,29.86,WNW,302,0.0,0.0,92,0.00,,,0.00,Wunderground v.1.15,2013-09-22 09:55:00,
2013-09-22 06:00:00,52.0,49.7,29.86,WNW,302,0.0,0.0,92,0.00,,,0.00,Wunderground v.1.15,2013-09-22 10:00:00,
2013-09-22 06:10:00,52.2,49.9,29.87,WNW,302,0.0,0.0,92,0.00,,,0.00,Wunderground v.1.15,2013-09-22 10:10:00,
2013-09-22 06:15:00,52.2,49.9,29.87,WNW,302,0.0,0.0,92,0.00,,,0.00,Wunderground v.1.15,2013-09-22 10:15:00,
2013-09-22 06:25:00,52.2,49.9,29.87,WNW,302,0.0,0.0,92,0.00,,,0.00,Wunderground v.1.15,2013-09-22 10:25:00,
2013-09-22 06:35:00,52.1,49.8,29.87,WNW,302,0.0,0.0,92,0.00,,,0.00,Wunderground v.1.15,2013-09-22 10:35:00,
2013-09-22 06:40:00,52.0,49.7,29.88,WNW,302,0.0,0.0,92,0.00,,,0.00,Wunderground v.1.15,2013-09-22 10:40:00,
2013-09-22 06:45:00,52.0,49.7,29.88,WNW,302,0.0,0.0,92,0.00,,,0.00,Wunderground v.1.15,2013-09-22 10:45:00,
2013-09-22 06:50:00,52.1,49.8,29.88,WNW,302,0.0,0.0,92,0.00,,,0.00,Wunderground v.1.15,2013-09-22 10:50:00,
2013-09-22 07:00:00,52.2,49.9,29.88,WNW,302,0.0,0.0,92,0.00,,,0.00,Wunderground v.1.15,2013-09-22 11:00:00,
2013-09-22 07:10:00,52.3,50.0,29.89,WNW,302,0.0,0.0,92,0.00,,,0.00,Wunderground v.1.15,2013-09-22 11:10:00,
2013-09-22 07:15:00,52.4,50.1,29.89,WNW,302,0.0,0.0,92,0.00,,,0.00,Wunderground v.1.15,2013-09-22 11:15:00,
2013-09-22 07:25:00,52.5,50.2,29.89,WNW,302,0.0,0.0,92,0.00,,,0.00,Wunderground v.1.15,2013-09-22 11:25:00,
2013-09-22 07:30:00,52.5,50.5,29.89,WNW,302,0.0,0.0,93,0.00,,,0.00,Wunderground v.1.15,2013-09-22 11:30:00,
2013-09-22 07:35:00,52.5,50.5,29.89,WNW,302,0.0,0.0,93,0.00,,,0.00,Wunderground v.1.15,2013-09-22 11:35:00,
2013-09-22 07:40:00,52.5,50.5,29.89,WNW,302,0.0,0.0,93,0.00,,,0.00,Wunderground v.1.15,2013-09-22 11:40:00,
2013-09-22 07:45:00,52.6,50.6,29.90,WNW,302,0.0,0.0,93,0.00,,,0.00,Wunderground v.1.15,2013-09-22 11:45:00,
2013-09-22 07:55:00,52.6,50.6,29.90,WNW,302,0.0,0.0,93,0.00,,,0.00,Wunderground v.1.15,2013-09-22 11:55:00,
2013-09-22 08:00:00,52.7,50.7,29.90,WNW,302,0.0,0.0,93,0.00,,,0.00,Wunderground v.1.15,2013-09-22 12:00:00,
2013-09-22 08:05:00,52.7,50.7,29.90,WNW,302,0.0,0.0,93,0.00,,,0.00,Wunderground v.1.15,2013-09-22 12:05:00,
2013-09-22 08:10:00,52.7,50.7,29.90,WNW,302,0.0,0.0,93,0.00,,,0.00,Wunderground v.1.15,2013-09-22 12:10:00,
2013-09-22 08:20:00,53.0,51.0,29.90,WNW,302,0.0,0.0,93,0.00,,,0.00,Wunderground v.1.15,2013-09-22 12:20:00,
2013-09-22 08:30:00,53.5,51.5,29.90,WNW,302,0.0,1.0,93,0.00,,,0.00,Wunderground v.1.15,2013-09-22 12:30:00,
2013-09-22 08:40:00,53.6,51.6,29.90,WNW,302,0.0,0.0,93,0.00,,,0.00,Wunderground v.1.15,2013-09-22 12:40:00,
2013-09-22 08:45:00,53.8,51.8,29.90,WNW,302,0.0,0.0,93,0.00,,,0.00,Wunderground v.1.15,2013-09-22 12:45:00,
2013-09-22 08:50:00,54.1,52.1,29.90,WNW,302,0.0,0.0,93,0.00,,,0.00,Wunderground v.1.15,2013-09-22 12:50:00,
2013-09-22 08:55:00,54.4,52.4,29.90,WNW,302,0.0,0.0,93,0.00,,,0.00,Wunderground v.1.15,2013-09-22 12:55:00,
2013-09-22 09:00:00,54.6,52.6,29.90,WNW,302,0.0,0.0,93,0.00,,,0.00,Wunderground v.1.15,2013-09-22 13:00:00,
2013-09-22 09:10:00,54.9,52.9,29.90,WNW,302,0.0,0.0,93,0.00,,,0.00,Wunderground v.1.15,2013-09-22 13:10:00,
2013-09-22 09:15:00,55.1,53.1,29.90,WNW,302,0.0,0.0,93,0.00,,,0.00,Wunderground v.1.15,2013-09-22 13:15:00,
2013-09-22 09:25:00,55.3,53.3,29.91,WNW,302,0.0,0.0,93,0.00,,,0.00,Wunderground v.1.15,2013-09-22 13:25:00,
2013-09-22 09:30:00,55.5,53.5,29.91,WNW,302,0.0,0.0,93,0.00,,,0.00,Wunderground v.1.15,2013-09-22 13:30:00,
2013-09-22 09:35:00,56.1,54.1,29.91,WNW,302,0.0,0.0,93,0.00,,,0.00,Wunderground v.1.15,2013-09-22 13:35:00,
2013-09-22 09:40:00,56.5,54.5,29.91,WNW,302,0.0,0.0,93,0.00,,,0.00,Wunderground v.1.15,2013-09-22 13:40:00,
2013-09-22 09:45:00,57.0,55.0,29.91,WNW,302,0.0,0.0,93,0.00,,,0.00,Wunderground v.1.15,2013-09-22 13:45:00,
2013-09-22 09:55:00,57.8,55.8,29.92,SE,125,0.0,0.0,93,0.00,,,0.00,Wunderground v.1.15,2013-09-22 13:55:00,
2013-09-22 10:00:00,57.9,55.9,29.91,SE,125,0.0,1.0,93,0.00,,,0.00,Wunderground v.1.15,2013-09-22 14:00:00,
2013-09-22 10:10:00,58.8,56.5,29.91,SSE,147,0.0,0.0,92,0.00,,,0.00,Wunderground v.1.15,2013-09-22 14:10:00,
2013-09-22 10:15:00,59.2,56.9,29.91,ESE,117,0.0,0.0,92,0.00,,,0.00,Wunderground v.1.15,2013-09-22 14:15:00,
2013-09-22 10:25:00,59.2,56.6,29.92,SE,146,0.0,1.0,91,0.00,,,0.00,Wunderground v.1.15,2013-09-22 14:25:00,
2013-09-22 10:30:00,59.4,56.5,29.92,SSE,156,0.0,1.0,90,0.00,,,0.00,Wunderground v.1.15,2013-09-22 14:30:00,
2013-09-22 10:40:00,59.0,56.1,29.92,SSE,161,1.0,1.0,90,0.00,,,0.00,Wunderground v.1.15,2013-09-22 14:40:00,
2013-09-22 10:50:00,58.9,55.7,29.92,SSE,161,0.0,0.0,89,0.00,,,0.00,Wunderground v.1.15,2013-09-22 14:50:00,
2013-09-22 10:55:00,59.1,55.9,29.92,SSE,161,0.0,0.0,89,0.00,,,0.00,Wunderground v.1.15,2013-09-22 14:55:00,
2013-09-22 11:00:00,59.6,56.4,29.92,SSE,161,0.0,0.0,89,0.00,,,0.00,Wunderground v.1.15,2013-09-22 15:00:00,
2013-09-22 11:10:00,60.2,56.9,29.92,SSE,161,0.0,0.0,89,0.00,,,0.00,Wunderground v.1.15,2013-09-22 15:10:00,
2013-09-22 11:15:00,60.2,56.6,29.92,SW,230,0.0,0.0,88,0.00,,,0.00,Wunderground v.1.15,2013-09-22 15:15:00,
2013-09-22 11:25:00,60.3,56.4,29.92,SW,230,0.0,0.0,87,0.00,,,0.00,Wunderground v.1.15,2013-09-22 15:25:00,
2013-09-22 11:30:00,60.2,56.3,29.92,SW,230,0.0,0.0,87,0.00,,,0.00,Wunderground v.1.15,2013-09-22 15:30:00,
2013-09-22 11:40:00,60.7,57.1,29.92,SW,230,0.0,0.0,88,0.00,,,0.00,Wunderground v.1.15,2013-09-22 15:40:00,
2013-09-22 11:45:00,61.0,57.1,29.92,SW,230,0.0,0.0,87,0.00,,,0.00,Wunderground v.1.15,2013-09-22 15:45:00,
2013-09-22 11:55:00,61.4,56.5,29.92,SSE,162,0.0,0.0,84,0.00,,,0.00,Wunderground v.1.15,2013-09-22 15:55:00,
2013-09-22 12:00:00,62.0,56.8,29.92,South,186,0.0,0.0,83,0.00,,,0.00,Wunderground v.1.15,2013-09-22 16:00:00,
2013-09-22 12:05:00,62.6,56.7,29.92,SSW,202,0.0,0.0,81,0.00,,,0.00,Wunderground v.1.15,2013-09-22 16:05:00,
2013-09-22 12:10:00,62.7,55.4,29.92,SW,226,1.0,1.0,77,0.00,,,0.00,Wunderground v.1.15,2013-09-22 16:10:00,
2013-09-22 12:15:00,62.9,57.0,29.92,SW,226,1.0,1.0,81,0.00,,,0.00,Wunderground v.1.15,2013-09-22 16:15:00,
2013-09-22 12:25:00,63.9,54.7,29.92,WNW,286,2.0,2.0,72,0.00,,,0.00,Wunderground v.1.15,2013-09-22 16:25:00,
2013-09-22 12:30:00,64.7,57.3,29.92,South,180,2.0,3.0,77,0.00,,,0.00,Wunderground v.1.15,2013-09-22 16:30:00,
2013-09-22 12:40:00,65.4,56.5,29.91,South,190,2.0,2.0,73,0.00,,,0.00,Wunderground v.1.15,2013-09-22 16:40:00,
2013-09-22 12:45:00,65.7,57.6,29.91,SSW,196,3.0,3.0,75,0.00,,,0.00,Wunderground v.1.15,2013-09-22 16:45:00,
2013-09-22 12:50:00,66.1,56.8,29.91,East,96,2.0,2.0,72,0.00,,,0.00,Wunderground v.1.15,2013-09-22 16:50:00,
2013-09-22 12:55:00,66.1,56.4,29.91,South,186,1.0,2.0,71,0.00,,,0.00,Wunderground v.1.15,2013-09-22 16:55:00,
2013-09-22 13:00:00,66.0,54.7,29.91,SW,222,1.0,2.0,67,0.00,,,0.00,Wunderground v.1.15,2013-09-22 17:00:00,
2013-09-22 13:10:00,65.7,54.4,29.91,West,268,3.0,5.0,67,0.00,,,0.00,Wunderground v.1.15,2013-09-22 17:10:00,
2013-09-22 13:15:00,65.4,54.6,29.91,West,269,4.0,5.0,68,0.00,,,0.00,Wunderground v.1.15,2013-09-22 17:15:00,
2013-09-22 13:20:00,65.1,55.1,29.91,West,273,3.0,3.0,70,0.00,,,0.00,Wunderground v.1.15,2013-09-22 17:20:00,
2013-09-22 13:25:00,64.8,56.3,29.91,West,268,1.0,3.0,74,0.00,,,0.00,Wunderground v.1.15,2013-09-22 17:25:00,
2013-09-22 13:30:00,64.8,56.3,29.91,SSW,202,1.0,5.0,74,0.00,,,0.00,Wunderground v.1.15,2013-09-22 17:30:00,
2013-09-22 13:40:00,65.3,54.1,29.91,WSW,243,2.0,2.0,67,0.00,,,0.00,Wunderground v.1.15,2013-09-22 17:40:00,
2013-09-22 13:45:00,65.5,55.5,29.90,SSW,210,2.0,2.0,70,0.00,,,0.00,Wunderground v.1.15,2013-09-22 17:45:00,
2013-09-22 13:55:00,65.2,54.4,29.90,WSW,254,1.0,3.0,68,0.00,,,0.00,Wunderground v.1.15,2013-09-22 17:55:00,
2013-09-22 14:00:00,65.4,57.6,29.90,WSW,246,1.0,1.0,76,0.00,,,0.00,Wunderground v.1.15,2013-09-22 18:00:00,
2013-09-22 14:05:00,65.4,58.7,29.90,West,259,1.0,1.0,79,0.00,,,0.00,Wunderground v.1.15,2013-09-22 18:05:00,
2013-09-22 14:10:00,65.9,59.6,29.90,WSW,246,1.0,1.0,80,0.00,,,0.00,Wunderground v.1.15,2013-09-22 18:10:00,
2013-09-22 14:15:00,65.9,55.0,29.90,South,172,1.0,1.0,68,0.00,,,0.00,Wunderground v.1.15,2013-09-22 18:15:00,
2013-09-22 14:25:00,65.6,56.3,29.90,West,269,1.0,2.0,72,0.00,,,0.00,Wunderground v.1.15,2013-09-22 18:25:00,
2013-09-22 14:30:00,65.8,54.9,29.89,WSW,250,2.0,3.0,68,0.00,,,0.00,Wunderground v.1.15,2013-09-22 18:30:00,
2013-09-22 14:40:00,67.0,56.1,29.89,WSW,246,2.0,2.0,68,0.00,,,0.00,Wunderground v.1.15,2013-09-22 18:40:00,
2013-09-22 14:45:00,67.8,57.3,29.89,SSW,206,1.0,2.0,69,0.00,,,0.00,Wunderground v.1.15,2013-09-22 18:45:00,
2013-09-22 14:50:00,68.0,57.4,29.89,SSE,165,1.0,1.0,69,0.00,,,0.00,Wunderground v.1.15,2013-09-22 18:50:00,
2013-09-22 14:55:00,67.5,56.2,29.89,WNW,289,2.0,2.0,67,0.00,,,0.00,Wunderground v.1.15,2013-09-22 18:55:00,
2013-09-22 15:00:00,67.4,55.6,29.89,West,275,2.0,2.0,66,0.00,,,0.00,Wunderground v.1.15,2013-09-22 19:00:00,
2013-09-22 15:10:00,66.5,56.0,29.89,SSE,161,1.0,1.0,69,0.00,,,0.00,Wunderground v.1.15,2013-09-22 19:10:00,
2013-09-22 15:15:00,66.0,57.1,29.89,West,263,2.0,2.0,73,0.00,,,0.00,Wunderground v.1.15,2013-09-22 19:15:00,
2013-09-22 15:25:00,65.1,57.3,29.89,WSW,256,0.0,1.0,76,0.00,,,0.00,Wunderground v.1.15,2013-09-22 19:25:00,
2013-09-22 15:30:00,64.7,57.7,29.89,WSW,256,0.0,0.0,78,0.00,,,0.00,Wunderground v.1.15,2013-09-22 19:30:00,
2013-09-22 15:40:00,64.4,58.4,29.89,WSW,256,0.0,0.0,81,0.00,,,0.00,Wunderground v.1.15,2013-09-22 19:40:00,
2013-09-22 15:45:00,64.1,58.1,29.89,WSW,256,0.0,0.0,81,0.00,,,0.00,Wunderground v.1.15,2013-09-22 19:45:00,
2013-09-22 15:55:00,63.9,57.3,29.89,WSW,254,0.0,0.0,79,0.00,,,0.00,Wunderground v.1.15,2013-09-22 19:55:00,
2013-09-22 16:00:00,64.0,57.4,29.89,WSW,257,1.0,1.0,79,0.00,,,0.00,Wunderground v.1.15,2013-09-22 20:00:00,
2013-09-22 16:10:00,63.9,56.9,29.89,WSW,240,1.0,1.0,78,0.00,,,0.00,Wunderground v.1.15,2013-09-22 20:10:00,
2013-09-22 16:15:00,64.5,56.8,29.89,SW,235,1.0,1.0,76,0.00,,,0.00,Wunderground v.1.15,2013-09-22 20:15:00,
2013-09-22 16:25:00,64.9,57.9,29.88,SW,234,2.0,2.0,78,0.00,,,0.00,Wunderground v.1.15,2013-09-22 20:25:00,
2013-09-22 16:30:00,65.4,58.0,29.88,SW,232,1.0,1.0,77,0.00,,,0.00,Wunderground v.1.15,2013-09-22 20:30:00,
2013-09-22 16:35:00,65.8,59.1,29.89,SW,232,1.0,3.0,79,0.00,,,0.00,Wunderground v.1.15,2013-09-22 20:35:00,
2013-09-22 16:40:00,66.2,57.3,29.89,WSW,244,1.0,1.0,73,0.00,,,0.00,Wunderground v.1.15,2013-09-22 20:40:00,
2013-09-22 16:45:00,67.1,55.4,29.89,WSW,257,2.0,2.0,66,0.00,,,0.00,Wunderground v.1.15,2013-09-22 20:45:00,
2013-09-22 16:55:00,67.3,54.7,29.89,WNW,282,3.0,6.0,64,0.00,,,0.00,Wunderground v.1.15,2013-09-22 20:55:00,
2013-09-22 17:05:00,66.5,58.0,29.89,SW,236,2.0,3.0,74,0.00,,,0.00,Wunderground v.1.15,2013-09-22 21:05:00,
2013-09-22 17:10:00,66.1,57.9,29.89,WSW,242,2.0,2.0,75,0.00,,,0.00,Wunderground v.1.15,2013-09-22 21:10:00,
2013-09-22 17:20:00,65.6,57.5,29.89,WSW,238,1.0,2.0,75,0.00,,,0.00,Wunderground v.1.15,2013-09-22 21:20:00,
2013-09-22 17:25:00,65.4,57.6,29.89,WSW,247,1.0,2.0,76,0.00,,,0.00,Wunderground v.1.15,2013-09-22 21:25:00,
2013-09-22 17:30:00,65.1,57.3,29.89,WSW,252,1.0,1.0,76,0.00,,,0.00,Wunderground v.1.15,2013-09-22 21:30:00,
2013-09-22 17:40:00,65.0,57.2,29.90,WSW,238,2.0,2.0,76,0.00,,,0.00,Wunderground v.1.15,2013-09-22 21:40:00,
2013-09-22 17:45:00,64.3,57.3,29.90,WSW,238,1.0,2.0,78,0.00,,,0.00,Wunderground v.1.15,2013-09-22 21:45:00,
2013-09-22 17:55:00,63.1,56.1,29.90,SW,234,1.0,1.0,78,0.00,,,0.00,Wunderground v.1.15,2013-09-22 21:55:00,
2013-09-22 18:00:00,62.9,55.9,29.90,WSW,248,1.0,1.0,78,0.00,,,0.00,Wunderground v.1.15,2013-09-22 22:00:00,
2013-09-22 18:05:00,63.4,54.6,29.90,West,259,2.0,2.0,73,0.00,,,0.00,Wunderground v.1.15,2013-09-22 22:05:00,
2013-09-22 18:10:00,63.5,56.2,29.90,WSW,244,1.0,1.0,77,0.00,,,0.00,Wunderground v.1.15,2013-09-22 22:10:00,
2013-09-22 18:15:00,63.0,56.0,29.90,WSW,244,0.0,1.0,78,0.00,,,0.00,Wunderground v.1.15,2013-09-22 22:15:00,
2013-09-22 18:25:00,61.8,55.6,29.90,WSW,244,0.0,0.0,80,0.00,,,0.00,Wunderground v.1.15,2013-09-22 22:25:00,
2013-09-22 18:30:00,61.3,55.8,29.90,WSW,244,0.0,0.0,82,0.00,,,0.00,Wunderground v.1.15,2013-09-22 22:30:00,
2013-09-22 18:40:00,60.6,55.4,29.91,WSW,244,0.0,0.0,83,0.00,,,0.00,Wunderground v.1.15,2013-09-22 22:40:00,
2013-09-22 18:45:00,60.2,55.3,29.91,WSW,244,0.0,0.0,84,0.00,,,0.00,Wunderground v.1.15,2013-09-22 22:45:00,
2013-09-22 18:50:00,59.9,55.1,29.91,WSW,244,0.0,0.0,84,0.00,,,0.00,Wunderground v.1.15,2013-09-22 22:50:00,
2013-09-22 18:55:00,59.8,55.3,29.91,WSW,244,0.0,0.0,85,0.00,,,0.00,Wunderground v.1.15,2013-09-22 22:55:00,
2013-09-22 19:05:00,58.9,54.7,29.91,WSW,244,0.0,0.0,86,0.00,,,0.00,Wunderground v.1.15,2013-09-22 23:05:00,
2013-09-22 19:10:00,58.5,54.6,29.91,WSW,244,0.0,0.0,87,0.00,,,0.00,Wunderground v.1.15,2013-09-22 23:10:00,
2013-09-22 19:15:00,58.2,54.3,29.91,WSW,244,0.0,0.0,87,0.00,,,0.00,Wunderground v.1.15,2013-09-22 23:15:00,
2013-09-22 19:25:00,57.7,54.2,29.91,WSW,244,0.0,0.0,88,0.00,,,0.00,Wunderground v.1.15,2013-09-22 23:25:00,
2013-09-22 19:30:00,57.4,53.9,29.91,WSW,244,0.0,0.0,88,0.00,,,0.00,Wunderground v.1.15,2013-09-22 23:30:00,
2013-09-22 19:40:00,56.8,53.3,29.92,WSW,244,0.0,0.0,88,0.00,,,0.00,Wunderground v.1.15,2013-09-22 23:40:00,
2013-09-22 19:45:00,56.5,53.3,29.92,WSW,244,0.0,0.0,89,0.00,,,0.00,Wunderground v.1.15,2013-09-22 23:45:00,
2013-09-22 19:50:00,56.2,53.0,29.92,WSW,244,0.0,0.0,89,0.00,,,0.00,Wunderground v.1.15,2013-09-22 23:50:00,
2013-09-22 19:55:00,55.9,52.7,29.92,WSW,244,0.0,0.0,89,0.00,,,0.00,Wunderground v.1.15,2013-09-22 23:55:00,
2013-09-22 20:05:00,55.5,52.3,29.93,WSW,244,0.0,0.0,89,0.00,,,0.00,Wunderground v.1.15,2013-09-23 00:05:00,
2013-09-22 20:10:00,55.3,52.1,29.93,WSW,244,0.0,0.0,89,0.00,,,0.00,Wunderground v.1.15,2013-09-23 00:10:00,
2013-09-22 20:15:00,55.0,52.1,29.93,WSW,244,0.0,0.0,90,0.00,,,0.00,Wunderground v.1.15,2013-09-23 00:15:00,
2013-09-22 20:25:00,54.4,51.5,29.94,WSW,244,0.0,1.0,90,0.00,,,0.00,Wunderground v.1.15,2013-09-23 00:25:00,
2013-09-22 20:30:00,54.3,51.4,29.94,WSW,244,0.0,0.0,90,0.00,,,0.00,Wunderground v.1.15,2013-09-23 00:30:00,
2013-09-22 20:35:00,54.2,51.3,29.94,WSW,244,0.0,0.0,90,0.00,,,0.00,Wunderground v.1.15,2013-09-23 00:35:00,
2013-09-22 20:40:00,54.0,51.1,29.94,WSW,244,0.0,0.0,90,0.00,,,0.00,Wunderground v.1.15,2013-09-23 00:40:00,
2013-09-22 20:45:00,53.9,51.0,29.94,WSW,244,0.0,0.0,90,0.00,,,0.00,Wunderground v.1.15,2013-09-23 00:45:00,
2013-09-22 20:55:00,53.5,50.6,29.95,WSW,244,0.0,0.0,90,0.00,,,0.00,Wunderground v.1.15,2013-09-23 00:55:00,
2013-09-22 21:00:00,53.4,50.5,29.95,WSW,244,0.0,0.0,90,0.00,,,0.00,Wunderground v.1.15,2013-09-23 01:00:00,
2013-09-22 21:10:00,53.3,50.4,29.95,WSW,244,0.0,0.0,90,0.00,,,0.00,Wunderground v.1.15,2013-09-23 01:10:00,
2013-09-22 21:15:00,53.3,50.4,29.95,WSW,244,0.0,0.0,90,0.00,,,0.00,Wunderground v.1.15,2013-09-23 01:15:00,
2013-09-22 21:25:00,53.3,50.7,29.96,WSW,244,0.0,1.0,91,0.00,,,0.00,Wunderground v.1.15,2013-09-23 01:25:00,
2013-09-22 21:30:00,53.3,50.7,29.96,WSW,244,0.0,0.0,91,0.00,,,0.00,Wunderground v.1.15,2013-09-23 01:30:00,
2013-09-22 21:40:00,53.3,50.7,29.97,WSW,244,0.0,0.0,91,0.00,,,0.00,Wunderground v.1.15,2013-09-23 01:40:00,
2013-09-22 21:45:00,53.0,50.4,29.97,WSW,244,0.0,0.0,91,0.00,,,0.00,Wunderground v.1.15,2013-09-23 01:45:00,
2013-09-22 21:55:00,52.8,50.2,29.98,WSW,244,0.0,1.0,91,0.00,,,0.00,Wunderground v.1.15,2013-09-23 01:55:00,
2013-09-22 22:00:00,52.7,50.1,29.98,WSW,244,0.0,0.0,91,0.00,,,0.00,Wunderground v.1.15,2013-09-23 02:00:00,
2013-09-22 22:05:00,52.6,50.0,29.98,WSW,244,0.0,0.0,91,0.00,,,0.00,Wunderground v.1.15,2013-09-23 02:05:00,
2013-09-22 22:15:00,52.5,49.9,29.98,WSW,244,0.0,0.0,91,0.00,,,0.00,Wunderground v.1.15,2013-09-23 02:15:00,
2013-09-22 22:20:00,52.4,49.8,29.98,WSW,244,0.0,0.0,91,0.00,,,0.00,Wunderground v.1.15,2013-09-23 02:20:00,
2013-09-22 22:25:00,52.3,49.8,29.98,WSW,244,0.0,0.0,91,0.00,,,0.00,Wunderground v.1.15,2013-09-23 02:25:00,
2013-09-22 22:30:00,52.3,49.8,29.98,WSW,244,0.0,0.0,91,0.00,,,0.00,Wunderground v.1.15,2013-09-23 02:30:00,
2013-09-22 22:40:00,52.1,49.6,29.99,WSW,244,0.0,0.0,91,0.00,,,0.00,Wunderground v.1.15,2013-09-23 02:40:00,
2013-09-22 22:45:00,52.0,49.5,29.98,WSW,244,0.0,0.0,91,0.00,,,0.00,Wunderground v.1.15,2013-09-23 02:45:00,
2013-09-22 22:55:00,51.9,49.4,29.99,WSW,244,0.0,0.0,91,0.00,,,0.00,Wunderground v.1.15,2013-09-23 02:55:00,
2013-09-22 23:00:00,51.8,49.3,29.99,WSW,244,0.0,0.0,91,0.00,,,0.00,Wunderground v.1.15,2013-09-23 03:00:00,
2013-09-22 23:05:00,51.6,49.1,29.99,WSW,244,0.0,0.0,91,0.00,,,0.00,Wunderground v.1.15,2013-09-23 03:05:00,
2013-09-22 23:10:00,51.5,49.0,29.99,WSW,244,0.0,0.0,91,0.00,,,0.00,Wunderground v.1.15,2013-09-23 03:10:00,
2013-09-22 23:15:00,51.5,49.0,29.99,WSW,244,0.0,0.0,91,0.00,,,0.00,Wunderground v.1.15,2013-09-23 03:15:00,
2013-09-22 23:20:00,51.3,48.8,29.99,WSW,244,0.0,0.0,91,0.00,,,0.00,Wunderground v.1.15,2013-09-23 03:20:00,
2013-09-22 23:25:00,51.1,48.6,29.99,WSW,244,0.0,0.0,91,0.00,,,0.00,Wunderground v.1.15,2013-09-23 03:25:00,
2013-09-22 23:35:00,50.9,48.4,29.99,WSW,244,0.0,0.0,91,0.00,,,0.00,Wunderground v.1.15,2013-09-23 03:35:00,
2013-09-22 23:40:00,50.8,48.3,29.99,WSW,244,0.0,0.0,91,0.00,,,0.00,Wunderground v.1.15,2013-09-23 03:40:00,
2013-09-22 23:45:00,50.7,48.2,29.99,WSW,244,0.0,0.0,91,0.00,,,0.00,Wunderground v.1.15,2013-09-23 03:45:00,
2013-09-22 23:55:00,50.4,47.9,29.99,WSW,244,0.0,0.0,91,0.00,,,0.00,Wunderground v.1.15,2013-09-23 03:55:00,